sat.trackr.live / text

‹ back to catalog

SKYSAT-C13

NORAD 43802 · 2018-099AW

PAYLOAD ACTIVE UNKNOWN

§ Identity

Operator
Country
US
Launch date
2018-12-03
Launch site
AFWTR
Launch vehicle
Mass (kg)
RCS (m²)

Purposes: earth_obs

External: N2YO · Heavens-Above · Gunter

§ Orbital elements

Epoch: 2026-05-25T01:58:30.657792Z

Period
90.13 min
Inclination
96.9184°
Eccentricity
0.0003856
Mean motion
15.97624013 rev/d
Perigee alt
278.4 km
Apogee alt
283.6 km
Semi-major
6,659.1 km
B*
5.4339e-4
RAAN
193.8074°
Arg perigee
210.7280°
Mean anomaly
149.3773°
Rev number
41,927

§ Raw data

SKYSAT-C131 43802U 18099AW  26145.08229928  .00240698  25036-4  54339-3 0  99982 43802  96.9184 193.8074 0003856 210.7280 149.3773 15.97624013419275

JSON: /api/v1/satellites/43802 · /tle

For live sub-satellite position, see the globe view (requires WebGL).

§ Visibility from observer

Set your observer location to see the next 7 days of passes ≥ 10°. The values pass through the URL so the page stays shareable.

No JS? Fill the form by hand. The geolocation button needs JavaScript.